Regional Weather Roundup
Issued by NWS Sioux Falls, SD

Home | Current Version | Previous Version | Graphics & Text | Print | Product List | Glossary Off
Versions: 1 2 3 4 5 6 7 8 9 10 11 12 13 14 15 16 17 18 19 20 21 22 23 24 25 26 27 28 29 30 31 32 33 34 35 36 37 38 39 40 41 42 43 44 45 46 47 48 49 50

981
ASUS43 KFSD 261702
RWRFSD

WEATHER ROUNDUP FOR SE SOUTH DAKOTA/SW MINNESOTA/NW IOWA
NATIONAL WEATHER SERVICE SIOUX FALLS SD
1200 PM CDT THU MAY 26 2016

NOTE: "FAIR" INDICATES FEW OR NO CLOUDS BELOW 12,000 FEET WITH NO
SIGNIFICANT WEATHER AND OR OBSTRUCTIONS TO VISIBILITY.


SDZ038>040-050-052>070-261800-
SOUTHEAST SOUTH DAKOTA

CITY           SKY/WX    TMP DP  RH WIND       PRES   REMARKS
BROOKINGS      SUNNY     70  51  51 NW12      29.88R
CHAMBERLAIN    NOT AVBL
HURON          SUNNY     69  52  54 W6        29.88S
MADISON        FAIR      68  50  52 W6        29.90R
MITCHELL       MOSUNNY   72  52  49 CALM      29.89S
SIOUX FALLS    PTSUNNY   73  47  39 CALM      29.89R
WINNER         FAIR      73  53  49 S13       29.88F
YANKTON        CLOUDY    68  54  60 CALM      29.87F
$$

MNZ071-072-080-081-089-090-097-098-261800-
SOUTHWEST MINNESOTA

CITY           SKY/WX    TMP DP  RH WIND       PRES   REMARKS
FAIRMONT       SUNNY     73  48  40 W7        29.87S
JACKSON        SUNNY     72  46  40 W6        29.89R
LUVERNE        CLOUDY    72  46  40 NW6       29.90R
MARSHALL       SUNNY     74  48  39 NW8       29.86R
MONTEVIDEO     SUNNY     75  48  38 NW13G18   29.85R
PIPESTONE      SUNNY     72  50  46 W9        29.90R
REDWOOD FALLS  SUNNY     76  48  37 NW13G18   29.83S
TRACY          SUNNY     76  46  34 NW9G16    29.87R
WINDOM         SUNNY     73  48  40 CALM      29.88R
WORTHINGTON    SUNNY     72  48  42 NW7       29.90R
$$

IAZ001>003-012>014-020>022-031-032-NEZ013-014-SDZ071-261800-
NORTHWEST IOWA

CITY           SKY/WX    TMP DP  RH WIND       PRES   REMARKS
DENISON        MOSUNNY   75  57  53 CALM      29.86F
ESTHERVILLE    SUNNY     72  56  57 W9        29.88R
SIOUX CITY     PTSUNNY   74  61  63 S5        29.90R
SPENCER        SUNNY     71  56  58 NW7       29.89S
STORM LAKE       N/A     72  59  64 CALM      29.90S
$$

ABBREVIATIONS USED IN REMARKS
   TC - TEMPERATURE IN CELSIUS
  WCI - WIND CHILL INDEX
   HX - HEAT INDEX
  VSB - VISIBILITY





USA.gov is the U.S. government's official web portal to all federal, state and local government web resources and services.